Weather History for Ft Pierce, FL

Change the Weather History Date:

Sunday, June 16, 2013

  Actual Average Record
Temperature  
Mean Temperature 82 °F -  
Max Temperature 87 °F 89 °F 95 °F (1981)
Min Temperature 77 °F 71 °F 65 °F (1992)
Cooling Degree Days 16    
Growing Degree Days 32 (Base 50)    
Moisture  
Dew Point 74 °F    
Average Humidity 76    
Maximum Humidity 90    
Minimum Humidity 65    
Precipitation  
Precipitation 0.00 in - - ()
Sea Level Pressure  
Sea Level Pressure 30.08 in    
Wind  
Wind Speed 9 mph (ESE)    
Max Wind Speed 14 mph    
Max Gust Speed 18 mph    
Visibility 10 miles    
Events      
Averages and records for this station are not official NWS values.
T = Trace of Precipitation, MM = Missing Value Source: NWS Daily Summary

Daily Weather History Graph

Daily Weather History Graph

Search for Another Location

Airport:

Trip Planner

Search our weather history database for the weather conditions in past years. The results will help you decide how hot, cold, wet, or windy it might be!

Date:

Astronomy

Jun. 16, 2013 Rise Set
Actual Time 6:26 AM EDT 8:18 PM EDT
Civil Twilight 5:59 AM EDT 8:45 PM EDT
Nautical Twilight 5:27 AM EDT 9:17 PM EDT
Astronomical Twilight 4:53 AM EDT 9:51 PM EDT
Moon 1:23 PM EDT (6/16) 12:56 AM EDT (6/16)
Length of Visible Light 14h 45m
Length of Day
13h 52m
Waxing Crescent, 49% of the Moon is Illuminated
Jun 16
Waxing Crescent
Jun 16
First Quarter
Jun 23
Full
Jun 30
Last Quarter
Jul 8
New

Hourly Weather History & Observations

Time (EDT) Temp. Heat Index Dew Point Humidity Pressure Visibility Wind Dir Wind Speed Gust Speed Precip Events Conditions
12:53 AM 80.1 °F 84.5 °F 73.9 °F 81% 30.07 in 10.0 mi East 9.2 mph - N/A   Clear
1:53 AM 80.1 °F 84.2 °F 73.0 °F 79% 30.07 in 10.0 mi ESE 10.4 mph - N/A   Clear
2:53 AM 79.0 °F - 73.0 °F 82% 30.06 in 10.0 mi ESE 4.6 mph - N/A   Clear
3:53 AM 78.1 °F - 73.0 °F 84% 30.06 in 10.0 mi ESE 4.6 mph - N/A   Clear
4:53 AM 77.0 °F - 73.0 °F 88% 30.06 in 10.0 mi ESE 4.6 mph - N/A   Mostly Cloudy
5:15 AM 77.0 °F - 73.4 °F 89% 30.06 in 10.0 mi East 4.6 mph - N/A   Partly Cloudy
5:53 AM 77.0 °F - 73.9 °F 90% 30.06 in 10.0 mi East 6.9 mph - N/A   Clear
6:53 AM 77.0 °F - 73.9 °F 90% 30.06 in 10.0 mi East 3.5 mph - N/A   Clear
7:53 AM 81.0 °F 86.2 °F 73.9 °F 79% 30.08 in 10.0 mi ESE 8.1 mph - N/A   Clear
8:53 AM 82.9 °F 89.4 °F 73.9 °F 74% 30.09 in 10.0 mi East 10.4 mph - N/A   Scattered Clouds
9:05 AM 84.2 °F 92.3 °F 75.2 °F 74% 30.10 in 10.0 mi ESE 9.2 mph - N/A   Mostly Cloudy
9:24 AM 84.2 °F 90.9 °F 73.4 °F 70% 30.10 in 10.0 mi East 9.2 mph - N/A   Scattered Clouds
9:40 AM 84.2 °F 90.9 °F 73.4 °F 70% 30.10 in 10.0 mi East 10.4 mph - N/A   Mostly Cloudy
9:53 AM 84.0 °F 91.2 °F 73.9 °F 72% 30.09 in 10.0 mi East 8.1 mph - N/A   Scattered Clouds
10:08 AM 84.2 °F 90.9 °F 73.4 °F 70% 30.09 in 10.0 mi East 12.7 mph - N/A   Mostly Cloudy
10:17 AM 84.2 °F 90.9 °F 73.4 °F 70% 30.09 in 10.0 mi East 10.4 mph - N/A   Scattered Clouds
10:27 AM 82.4 °F 88.2 °F 73.4 °F 74% 30.09 in 10.0 mi East 10.4 mph - N/A   Mostly Cloudy
10:53 AM 84.0 °F 90.2 °F 73.0 °F 69% 30.09 in 10.0 mi ESE 13.8 mph - N/A   Overcast
11:53 AM 86.0 °F 93.0 °F 73.0 °F 65% 30.09 in 10.0 mi ESE 11.5 mph - N/A   Scattered Clouds
12:53 PM 86.0 °F 93.8 °F 73.9 °F 67% 30.09 in 10.0 mi ESE 12.7 mph - N/A   Scattered Clouds
1:17 PM 84.2 °F 90.9 °F 73.4 °F 70% 30.08 in 10.0 mi East 11.5 mph - N/A   Mostly Cloudy
1:53 PM 84.9 °F 92.1 °F 73.9 °F 69% 30.09 in 10.0 mi ESE 11.5 mph 18.4 mph N/A   Mostly Cloudy
2:53 PM 84.9 °F 92.1 °F 73.9 °F 69% 30.08 in 10.0 mi ESE 11.5 mph - N/A   Mostly Cloudy
3:53 PM 86.0 °F 95.1 °F 75.0 °F 70% 30.06 in 10.0 mi East 13.8 mph - N/A   Partly Cloudy
4:53 PM 86.0 °F 96.0 °F 75.9 °F 72% 30.04 in 10.0 mi ESE 11.5 mph - N/A   Scattered Clouds
5:53 PM 82.9 °F 90.2 °F 75.0 °F 77% 30.06 in 10.0 mi East 11.5 mph - N/A   Clear
6:53 PM 84.0 °F 91.9 °F 75.0 °F 74% 30.05 in 10.0 mi ESE 12.7 mph - N/A   Partly Cloudy
7:53 PM 82.0 °F 89.4 °F 75.9 °F 82% 30.05 in 10.0 mi East 12.7 mph - N/A   Clear
8:53 PM 81.0 °F 87.3 °F 75.9 °F 85% 30.07 in 10.0 mi East 6.9 mph - N/A   Clear
9:53 PM 81.0 °F 86.7 °F 75.0 °F 82% 30.08 in 10.0 mi ESE 10.4 mph - N/A   Scattered Clouds
10:53 PM 82.0 °F 88.6 °F 75.0 °F 79% 30.08 in 10.0 mi ESE 10.4 mph - N/A   Partly Cloudy
11:36 PM 82.4 °F 88.2 °F 73.4 °F 74% 30.09 in 10.0 mi SSE 9.2 mph - N/A   Mostly Cloudy
11:45 PM 82.4 °F 88.2 °F 73.4 °F 74% 30.09 in 10.0 mi SSE 6.9 mph - N/A   Scattered Clouds
11:53 PM 82.0 °F 87.9 °F 73.9 °F 76% 30.09 in 10.0 mi SSE 5.8 mph - N/A   Scattered Clouds